Hourly Weather Novoabramkino

Today, 12 July, Sunday

Time Temperature Precipitation Wind Pressure Humidity
00:00 +17°C° 0 mm 2 mps 748 mmHg 84%
01:00 +17°C° 0 mm 2 mps 748 mmHg 83%
02:00 +17°C° 0 mm 2 mps 748 mmHg 82%
03:00 +17°C° 0 mm 2 mps 747 mmHg 81%
04:00 +17°C° 0 mm 2 mps 747 mmHg 81%
05:00 +18°C° 0 mm 2 mps 747 mmHg 80%
06:00 +19°C° 0 mm 2 mps 747 mmHg 81%
07:00 +20°C° 0 mm 3 mps 747 mmHg 73%
08:00 +22°C° 0 mm 3 mps 747 mmHg 66%
09:00 +25°C° 0 mm 4 mps 746 mmHg 59%
10:00 +26°C° 0 mm 4 mps 746 mmHg 56%
11:00 +27°C° 0 mm 4 mps 746 mmHg 53%
12:00 +28°C° 0 mm 5 mps 746 mmHg 44%
13:00 +27°C° 0.3 mm 4 mps 746 mmHg 53%
14:00 +26°C° 0.3 mm 4 mps 746 mmHg 62%
15:00 +25°C° 0.3 mm 4 mps 746 mmHg 71%
16:00 +22°C° 1 mm 3 mps 746 mmHg 80%
17:00 +20°C° 1 mm 2 mps 746 mmHg 88%
18:00 +19°C° 0 mm 1 mps 746 mmHg 96%
19:00 +19°C° 0.5 mm 1 mps 746 mmHg 96%
20:00 +19°C° 0.5 mm 1 mps 747 mmHg 97%
21:00 +19°C° 0.5 mm 1 mps 747 mmHg 98%
22:00 +18°C° 0 mm 1 mps 747 mmHg 98%
23:00 +18°C° 0 mm 1 mps 747 mmHg 98%

Tomorrow, 13 July, Monday

Time Temperature Precipitation Wind Pressure Humidity
00:00 +16°C° 0 mm 1 mps 747 mmHg 98%
01:00 +16°C° 0 mm 1 mps 747 mmHg 98%
02:00 +15°C° 0 mm 1 mps 747 mmHg 98%
03:00 +15°C° 0 mm 1 mps 747 mmHg 98%
04:00 +15°C° 0 mm 2 mps 747 mmHg 98%
05:00 +15°C° 0 mm 2 mps 747 mmHg 97%
06:00 +15°C° 0 mm 2 mps 748 mmHg 97%
07:00 +17°C° 0 mm 2 mps 748 mmHg 90%
08:00 +18°C° 0 mm 2 mps 748 mmHg 83%
09:00 +21°C° 0 mm 1 mps 749 mmHg 76%
10:00 +21°C° 0 mm 2 mps 749 mmHg 71%
11:00 +23°C° 0 mm 2 mps 749 mmHg 67%
12:00 +24°C° 0 mm 2 mps 749 mmHg 62%
13:00 +24°C° 0 mm 2 mps 749 mmHg 61%
14:00 +24°C° 0 mm 2 mps 749 mmHg 60%
15:00 +25°C° 0 mm 2 mps 749 mmHg 59%
16:00 +24°C° 0 mm 2 mps 749 mmHg 61%
17:00 +24°C° 0 mm 2 mps 749 mmHg 62%
18:00 +24°C° 0 mm 2 mps 749 mmHg 63%
19:00 +21°C° 0 mm 2 mps 749 mmHg 72%
20:00 +21°C° 0 mm 1 mps 749 mmHg 80%
21:00 +19°C° 0 mm 1 mps 749 mmHg 88%
22:00 +18°C° 0 mm 1 mps 750 mmHg 90%
23:00 +18°C° 0 mm 1 mps 750 mmHg 92%

Day after tomorrow, 14 July, Tuesday

Time Temperature Precipitation Wind Pressure Humidity
00:00 +16°C° 0 mm 1 mps 750 mmHg 94%
01:00 +16°C° 0 mm 1 mps 750 mmHg 94%
02:00 +15°C° 0 mm 1 mps 750 mmHg 94%
03:00 +15°C° 0 mm 2 mps 750 mmHg 94%
04:00 +16°C° 0 mm 2 mps 750 mmHg 89%
05:00 +17°C° 0 mm 2 mps 750 mmHg 85%
06:00 +18°C° 0 mm 2 mps 751 mmHg 80%
07:00 +19°C° 0 mm 2 mps 751 mmHg 75%
08:00 +21°C° 0 mm 3 mps 751 mmHg 71%
09:00 +24°C° 0 mm 3 mps 751 mmHg 66%
10:00 +25°C° 0 mm 3 mps 752 mmHg 60%
11:00 +26°C° 0 mm 4 mps 752 mmHg 55%
12:00 +27°C° 0 mm 4 mps 752 mmHg 49%
13:00 +27°C° 0 mm 4 mps 752 mmHg 48%
14:00 +27°C° 0 mm 5 mps 752 mmHg 48%
15:00 +27°C° 0 mm 5 mps 752 mmHg 47%
16:00 +26°C° 0 mm 4 mps 753 mmHg 49%
17:00 +26°C° 0 mm 4 mps 753 mmHg 51%
18:00 +25°C° 0 mm 4 mps 754 mmHg 54%
19:00 +22°C° 0 mm 3 mps 754 mmHg 60%
20:00 +20°C° 0 mm 3 mps 754 mmHg 66%
21:00 +18°C° 0 mm 2 mps 755 mmHg 72%
22:00 +17°C° 0 mm 2 mps 755 mmHg 75%
23:00 +16°C° 0 mm 2 mps 756 mmHg 77%

15 July, Wednesday

Time Temperature Precipitation Wind Pressure Humidity
00:00 +15°C° 0 mm 2 mps 756 mmHg 80%
01:00 +14°C° 0 mm 2 mps 757 mmHg 82%
02:00 +13°C° 0 mm 2 mps 757 mmHg 84%
03:00 +10°C° 0 mm 2 mps 757 mmHg 86%
04:00 +12°C° 0 mm 2 mps 758 mmHg 82%
05:00 +13°C° 0 mm 2 mps 758 mmHg 78%
06:00 +13°C° 0 mm 2 mps 759 mmHg 75%
07:00 +15°C° 0 mm 2 mps 759 mmHg 67%
08:00 +16°C° 0 mm 2 mps 759 mmHg 59%
09:00 +18°C° 0 mm 2 mps 759 mmHg 50%
10:00 +19°C° 0 mm 2 mps 759 mmHg 47%
11:00 +21°C° 0 mm 2 mps 759 mmHg 43%
12:00 +23°C° 0 mm 2 mps 759 mmHg 39%
13:00 +23°C° 0 mm 2 mps 758 mmHg 38%
14:00 +24°C° 0 mm 2 mps 758 mmHg 38%
15:00 +24°C° 0 mm 2 mps 757 mmHg 37%
16:00 +24°C° 0 mm 2 mps 757 mmHg 40%
17:00 +24°C° 0 mm 1 mps 757 mmHg 43%
18:00 +24°C° 0 mm 1 mps 757 mmHg 45%
19:00 +21°C° 0 mm 1 mps 757 mmHg 53%
20:00 +19°C° 0 mm 1 mps 757 mmHg 61%
21:00 +16°C° 0 mm 1 mps 757 mmHg 69%
22:00 +16°C° 0 mm 1 mps 756 mmHg 69%
23:00 +15°C° 0 mm 1 mps 756 mmHg 68%

16 July, Thursday

Time Temperature Precipitation Wind Pressure Humidity
00:00 +14°C° 0 mm 1 mps 756 mmHg 68%
01:00 +14°C° 0 mm 1 mps 756 mmHg 68%
02:00 +14°C° 0 mm 1 mps 755 mmHg 68%
03:00 +14°C° 0 mm 2 mps 755 mmHg 68%
04:00 +14°C° 0 mm 2 mps 755 mmHg 68%
05:00 +15°C° 0 mm 2 mps 755 mmHg 68%
06:00 +16°C° 0 mm 3 mps 754 mmHg 68%
07:00 +18°C° 0 mm 3 mps 754 mmHg 62%
08:00 +20°C° 0 mm 3 mps 754 mmHg 57%
09:00 +22°C° 0 mm 4 mps 754 mmHg 51%
10:00 +25°C° 0 mm 4 mps 753 mmHg 51%
11:00 +26°C° 0 mm 4 mps 753 mmHg 52%
12:00 +27°C° 0 mm 4 mps 753 mmHg 52%
13:00 +27°C° 0 mm 4 mps 752 mmHg 56%
14:00 +27°C° 0 mm 3 mps 752 mmHg 61%
15:00 +27°C° 0 mm 3 mps 752 mmHg 65%
16:00 +27°C° 0 mm 2 mps 752 mmHg 65%
17:00 +28°C° 0 mm 2 mps 752 mmHg 65%
18:00 +28°C° 0 mm 2 mps 751 mmHg 65%
19:00 +26°C° 0 mm 1 mps 751 mmHg 73%
20:00 +24°C° 0 mm 1 mps 751 mmHg 82%
21:00 +21°C° 0 mm 0 mps 751 mmHg 90%
22:00 +22°C° 0 mm 1 mps 751 mmHg 92%
23:00 +21°C° 0 mm 1 mps 751 mmHg 93%

17 July, Friday

Time Temperature Precipitation Wind Pressure Humidity
00:00 +20°C° 0 mm 2 mps 751 mmHg 95%
01:00 +20°C° 0 mm 2 mps 750 mmHg 96%
02:00 +20°C° 0 mm 2 mps 750 mmHg 96%
03:00 +19°C° 0 mm 2 mps 750 mmHg 97%
04:00 +20°C° 0 mm 2 mps 750 mmHg 95%
05:00 +21°C° 0 mm 2 mps 750 mmHg 93%
06:00 +23°C° 0 mm 2 mps 750 mmHg 91%
07:00 +25°C° 0 mm 2 mps 749 mmHg 84%
08:00 +27°C° 0 mm 2 mps 749 mmHg 76%
09:00 +29°C° 0 mm 2 mps 749 mmHg 69%
10:00 +31°C° 0 mm 3 mps 749 mmHg 61%
11:00 +33°C° 0 mm 3 mps 749 mmHg 53%
12:00 +35°C° 0 mm 4 mps 748 mmHg 45%
13:00 +35°C° 0 mm 4 mps 748 mmHg 44%
14:00 +35°C° 0 mm 4 mps 748 mmHg 43%
15:00 +36°C° 0 mm 4 mps 748 mmHg 42%
16:00 +35°C° 0 mm 3 mps 748 mmHg 46%
17:00 +34°C° 0 mm 3 mps 748 mmHg 50%
18:00 +33°C° 0 mm 3 mps 748 mmHg 55%
19:00 +30°C° 0 mm 2 mps 748 mmHg 63%
20:00 +28°C° 0 mm 2 mps 748 mmHg 71%
21:00 +26°C° 0 mm 2 mps 749 mmHg 80%
22:00 +24°C° 0 mm 2 mps 749 mmHg 80%
23:00 +23°C° 0 mm 2 mps 749 mmHg 80%
Show more